COSMOS 2527 (756)

Last updated on Sept. 19, 2020, 5:47 a.m. UTC

1 43508U 18053A   20262.25813444  .00000047  00000-0  00000+0 0  9990
2 43508  64.8665 144.1756 0007021 228.0088 311.0713  2.13102702 17566
UTC
Height (km)
Latitude
Longitude
Inclination
Orbital Period
UTC large
Height (km)
Speed (km/s)
/
Latitude / Longitude
Inclination (degrees)
Orbital Period (minutes)
Azimuth
Elevation
Range (km)
Doppler Factor
iOS Compass Heading
iOS Angle

Next 30 passes for location: Hong Kong

Rise time Rise Azimuth (degrees) Set time Set Azimuth (degrees) Duration Max altitude (degrees)

No matching passes for this satellites